"Pseudo-MPEC" for P222rWw

Created 2024 Dec 1 10:31:27 UT using Find_Orb

Click here for an explanation of pseudo-MPECs

 
 Astrometry: 
     P222rWw* C2024 11 27.57319208 53 13.304-01 19 30.63   ~BRK2 22.07wXNEOCPF52
     P222rWw  C2024 11 27.58531008 53 13.314-01 19 44.30   ~BRK2 22.44wXNEOCPF52
     P222rWw  C2024 11 27.59745908 53 13.311-01 19 57.93   ~BRK2 22.43wXNEOCPF52
     P222rWw 3C2024 11 29.58413508 53 13.331-01 57 00.77   ~BTF2 21.95GVNEOCPT14
     P222rWw 3C2024 11 29.58511408 53 13.328-01 57 01.87   ~BTF2 22.09GVNEOCPT14
     P222rWw 3C2024 11 29.58609608 53 13.325-01 57 02.96   ~BTF2 21.98GVNEOCPT14

Station data:
(F52) Pan-STARRS 2, Haleakala  (N20.707382 W156.255910)  US/Hawaii.
   Observers J. Bulger, T. Dukes, T. Lowe, A. Schultz, M. Willman. Measurers
   K. Chambers, S. Chastel, T. de Boer, L. Denneau, J. Fairlamb, H.
   Flewelling, M. Huber, C.-C. Lin, E. Magnier, Y. Ramanjooloo, R. Wainscoat,
   R. Weryk. 1.8-m Ritchey-Chrétien + CCD.
(T14) Mauna Kea-UH/Tholen NEO Follow-Up (CFHT)  (N19.825252 W155.468876)
   US/Hawaii.  Observer R. Weryk. 3.6-m Canada-France-Hawaii Telescope.

Orbital elements:  P222rWw
   Perihelion 2025 Aug 17.31358 +/- 202 TT =  7:31:33 (JD 2460904.81358)
Epoch 2024 Nov 29.0 TT = JDT 2460643.5   Earth MOID: 0.0164      AutoNEOCP
M 256.49558112 +/- 80               (J2000 ecliptic)
n   0.39609276 +/- 0.316            Peri.  348.57311 +/- 100
a   1.83627664 +/- 0.976            Node   271.00550 +/- 19
e   0.4409503 +/- 0.23              Incl.   35.45131 +/- 12
P   2.488/908.861d         H 18.06  G  0.15   U 12.0  SR
q 1.02656981 +/- 0.807    Q 2.64598348 +/- 23.1
From 6 observations 2024 Nov. 27-29; mean residual 0".07
Residuals in arcseconds: 
241127 F52  .08-  .17+    241127 F52  .02+  .15-    241129 T14  .00   .00     
241127 F52  .06+  .03-    241129 T14  .01-  .01-    241129 T14  .01+  .01+    

Ephemerides (geocentric):
Date (UTC) HH   RA             Dec           delta  r     elong  mag " sig PA
---- --------  ------------   ------------  ------ ------ -----  --- --------
2024 12 01 11  08 53 06.317   -02 32 21.41  1.7298 2.2842 111.5 22.2 37.9  51
2024 12 01 12  08 53 06.083   -02 33 08.87  1.7292 2.2840 111.6 22.2 39.1  51
2024 12 01 13  08 53 05.847   -02 33 56.34  1.7286 2.2838 111.6 22.2 40.4  51
2024 12 01 14  08 53 05.606   -02 34 43.83  1.7279 2.2837 111.7 22.2 41.7  51
2024 12 01 15  08 53 05.362   -02 35 31.32  1.7273 2.2835 111.7 22.2 43.0  51
2024 12 01 16  08 53 05.115   -02 36 18.83  1.7267 2.2834 111.7 22.2 44.3  51
2024 12 01 17  08 53 04.864   -02 37 06.35  1.7260 2.2832 111.8 22.2 45.6  51
2024 12 01 18  08 53 04.610   -02 37 53.88  1.7254 2.2831 111.8 22.2 46.9  51
2024 12 01 19  08 53 04.353   -02 38 41.42  1.7248 2.2829 111.8 22.2 48.3  51
2024 12 01 20  08 53 04.091   -02 39 28.97  1.7242 2.2827 111.9 22.2 49.7  51
2024 12 01 21  08 53 03.827   -02 40 16.53  1.7235 2.2826 111.9 22.2 51.1  51
2024 12 01 22  08 53 03.559   -02 41 04.11  1.7229 2.2824 111.9 22.2 52.5  51
2024 12 01 23  08 53 03.287   -02 41 51.70  1.7223 2.2823 112.0 22.1 54.0  51
2024 12 02 00  08 53 03.012   -02 42 39.30  1.7217 2.2821 112.0 22.1 55.4  51
2024 12 02 01  08 53 02.733   -02 43 26.91  1.7210 2.2820 112.0 22.1 56.9  51
2024 12 02 02  08 53 02.451   -02 44 14.53  1.7204 2.2818 112.1 22.1 58.4  51
2024 12 02 03  08 53 02.166   -02 45 02.16  1.7198 2.2816 112.1 22.1 59.9  51
2024 12 02 04  08 53 01.877   -02 45 49.81  1.7192 2.2815 112.1 22.1 61.4  51
2024 12 02 05  08 53 01.584   -02 46 37.47  1.7186 2.2813 112.2 22.1 63.0  51
2024 12 02 06  08 53 01.288   -02 47 25.14  1.7179 2.2812 112.2 22.1 64.5  51
2024 12 02 07  08 53 00.989   -02 48 12.82  1.7173 2.2810 112.2 22.1 66.1  51
2024 12 02 08  08 53 00.686   -02 49 00.51  1.7167 2.2809 112.3 22.1 67.7  51
2024 12 02 09  08 53 00.379   -02 49 48.21  1.7161 2.2807 112.3 22.1 69.4  51
2024 12 02 10  08 53 00.069   -02 50 35.92  1.7154 2.2805 112.3 22.1 71.0  51
2024 12 02 11  08 52 59.756   -02 51 23.65  1.7148 2.2804 112.4 22.1 72.6  51
2024 12 02 12  08 52 59.438   -02 52 11.39  1.7142 2.2802 112.4 22.1 74.3  51
2024 12 02 13  08 52 59.118   -02 52 59.14  1.7136 2.2801 112.5 22.1 76.0  51
2024 12 02 14  08 52 58.794   -02 53 46.90  1.7130 2.2799 112.5 22.1 77.7  51
2024 12 02 15  08 52 58.466   -02 54 34.67  1.7123 2.2798 112.5 22.1 79.5  51
2024 12 02 16  08 52 58.135   -02 55 22.45  1.7117 2.2796 112.6 22.1 81.2  51
2024 12 02 17  08 52 57.800   -02 56 10.24  1.7111 2.2794 112.6 22.1 83.0  51
2024 12 02 18  08 52 57.462   -02 56 58.05  1.7105 2.2793 112.6 22.1 84.8  51
2024 12 02 19  08 52 57.120   -02 57 45.87  1.7098 2.2791 112.7 22.1 86.6  51
2024 12 02 20  08 52 56.775   -02 58 33.69  1.7092 2.2790 112.7 22.1 88.4  51
2024 12 02 21  08 52 56.426   -02 59 21.53  1.7086 2.2788 112.7 22.1 90.2  51
2024 12 02 22  08 52 56.074   -03 00 09.38  1.7080 2.2787 112.8 22.1 92.1  51
2024 12 02 23  08 52 55.718   -03 00 57.25  1.7074 2.2785 112.8 22.1 94.0  51
2024 12 03 00  08 52 55.359   -03 01 45.12  1.7067 2.2783 112.8 22.1 95.9  51
2024 12 03 01  08 52 54.996   -03 02 33.00  1.7061 2.2782 112.9 22.1 97.8  51
2024 12 03 02  08 52 54.629   -03 03 20.90  1.7055 2.2780 112.9 22.1  100  51
2024 12 03 03  08 52 54.259   -03 04 08.81  1.7049 2.2779 112.9 22.1  102  51
2024 12 03 04  08 52 53.885   -03 04 56.72  1.7043 2.2777 113.0 22.1  104  51
2024 12 03 05  08 52 53.508   -03 05 44.65  1.7037 2.2776 113.0 22.1  106  51
2024 12 03 06  08 52 53.127   -03 06 32.59  1.7030 2.2774 113.0 22.1  108  51
2024 12 03 07  08 52 52.743   -03 07 20.55  1.7024 2.2772 113.1 22.1  110  51
2024 12 03 08  08 52 52.355   -03 08 08.51  1.7018 2.2771 113.1 22.1  112  51
2024 12 03 09  08 52 51.964   -03 08 56.48  1.7012 2.2769 113.2 22.1  114  51
2024 12 03 10  08 52 51.569   -03 09 44.47  1.7006 2.2768 113.2 22.1  116  51